Location: Gwatt
(46.7204°N, 7.6223°E)
Time: 15:12:08
(UTC+00:00)

Cosmos 1655 Rocket - Pass Details

Date: 18 September 2020
Orbit: 971 x 1006 km, 82.9° (Epoch: 23 October)

Event Time Altitude Azimuth Distance (km) Brightness Sun altitude
Rises 21:04:52 0° 349° (N) 3,685 7.8 -33.1°
Reaches altitude 10° 21:07:23 10° 348° (NNW) 2,737 7.0 -33.4°
Enters shadow 21:12:32 61° 328° (NNW) 1,113 4.4 -34.0°
